EW8203 Weather Reports


time (UTC)temp
C
wind
direction
speed
KPH
gust
KPH
rain 1hr
cm
rain 24hr
cm
rain mn
cm
humidity
%
barometer
mb
20260504081535 16 105 1.6 6.4 0.00 0.00 0.00 67 1008.4
20260504050012 17 272 6.4 17.7 0.00 0.00 0.00 58 1008.5
20260504044514 17 207 4.8 17.7 0.00 0.00 0.00 57 1009.0
20260504043013 18 217 6.4 16.1 0.00 0.00 0.00 56 1009.4
20260504041527 18 207 6.4 17.7 0.00 0.00 0.00 55 1009.6
20260504040010 18 237 6.4 17.7 0.00 0.00 0.00 54 1009.6
20260504034509 18 237 6.4 16.1 0.00 0.00 0.00 53 1010.0
20260504033006 18 229 4.8 14.5 0.00 0.00 0.00 53 1010.0
20260504031506 18 218 4.8 16.1 0.00 0.00 0.00 51 1010.1
20260504030005 18 264 4.8 14.5 0.00 0.00 0.00 50 1010.0
20260504024505 18 277 3.2 12.9 0.00 0.00 0.00 49 1010.0
20260504023004 19 191 3.2 16.1 0.00 0.00 0.00 49 1010.1
20260504021503 19 198 4.8 14.5 0.00 0.00 0.00 48 1010.0
20260504020008 19 222 4.8 16.1 0.00 0.00 0.00 48 1009.8
20260504014501 20 198 1.6 8.0 0.00 0.00 0.00 47 1009.8
20260504013001 20 299 1.6 9.7 0.00 0.00 0.00 45 1009.8
20260504011601 20 206 3.2 11.3 0.00 0.00 0.00 44 1009.8
20260504010101 21 187 3.2 11.3 0.00 0.00 0.00 43 1009.6
20260504004559 21 171 3.2 8.0 0.00 0.00 0.00 40 1009.4
20260504003058 22 198 4.8 12.9 0.00 0.00 0.00 39 1009.5
20260504001559 22 250 6.4 12.9 0.00 0.00 0.00 38 1009.6
20260504000106 23 256 4.8 14.5 0.00 0.00 0.00 37 1009.6
20260503234556 23 284 4.8 11.3 0.00 0.00 0.00 36 1009.8
20260503233054 23 243 6.4 19.3 0.00 0.00 0.00 36 1009.8
20260503231554 23 205 6.4 22.5 0.00 0.00 0.00 36 1009.9
20260503230053 23 209 8.0 19.3 0.00 0.00 0.00 35 1010.0
20260503224558 23 348 6.4 19.3 0.00 0.00 0.00 35 1010.2
20260503223046 23 188 6.4 25.7 0.00 0.00 0.00 34 1010.3
20260503221557 23 269 9.7 22.5 0.00 0.00 0.00 34 1010.3
20260503220044 23 289 11.3 30.6 0.00 0.00 0.00 34 1010.4
20260503214543 23 263 11.3 29.0 0.00 0.00 0.00 34 1010.5
20260503213044 23 211 9.7 19.3 0.00 0.00 0.00 34 1010.7
20260503211538 23 253 9.7 24.1 0.00 0.00 0.00 33 1011.0
20260503210037 23 198 9.7 30.6 0.00 0.00 0.00 34 1011.0
20260503204534 23 198 11.3 29.0 0.00 0.00 0.00 34 1011.4
20260503203036 22 181 8.0 22.5 0.00 0.00 0.00 35 1011.8
20260503201530 22 204 11.3 29.0 0.00 0.00 0.00 36 1011.9
20260503200028 22 229 9.7 27.4 0.00 0.00 0.00 36 1012.6
20260503194523 22 214 8.0 24.1 0.00 0.00 0.00 36 1013.1
20260503193034 21 327 6.4 22.5 0.00 0.00 0.00 37 1013.4
20260503191533 21 251 8.0 25.7 0.00 0.00 0.00 38 1014.0
20260503190025 21 194 6.4 16.1 0.00 0.00 0.00 38 1014.1
20260503184515 20 175 9.7 30.6 0.00 0.00 0.00 38 1014.8
20260503183009 20 242 8.0 25.7 0.00 0.00 0.00 36 1015.4
20260503181506 20 288 4.8 19.3 0.00 0.00 0.00 40 1015.7
20260503180005 19 228 8.0 24.1 0.00 0.00 0.00 39 1016.3
20260503174604 19 202 4.8 19.3 0.00 0.00 0.00 41 1016.5
20260503173103 18 227 6.4 27.4 0.00 0.00 0.00 40 1016.9
20260503171554 18 251 6.4 19.3 0.00 0.00 0.00 42 1017.0
20260503170104 18 227 9.7 25.7 0.00 0.00 0.00 41 1017.3